Location: Erba
(45.8000°N, 9.2500°E)
Time: 12:24:08
(UTC+02:00)

ISS - Pass Details

Date: 05 July 2020
Orbit: 417 x 420 km, 51.6° (Epoch: 02 July)

Event Time Altitude Azimuth Distance (km) Brightness Sun altitude
Exits shadow 02:36:42 31° 110° (ESE) 753 -2.6 -19.7°
Drops below altitude 10° 02:39:03 10° 74° (ENE) 1,495 -0.5 -19.6°
Sets 02:41:14 0° 66° (ENE) 2,362 0.7 -19.4°
